• In Hungary
  • List of Countries
  • For 7 days
  • Water Temperature
  • Satellite Maps
  • Weather Map
  • News
  • Weather Widgets
  • user-avatar
    Login

    Hourly Weather Karasburg

    Today, 24 September, Monday

    Time Temperature Precipitation Wind Pressure Humidity
    00:00 +23°C° 0 mm 2 mps 680 mmHg 8%
    01:00 +23°C° 0 mm 2 mps 679 mmHg 8%
    02:00 +21°C° 0 mm 2 mps 679 mmHg 9%
    03:00 +21°C° 0 mm 3 mps 679 mmHg 10%
    04:00 +21°C° 0 mm 3 mps 679 mmHg 11%
    05:00 +22°C° 0 mm 3 mps 680 mmHg 11%
    06:00 +22°C° 0 mm 3 mps 680 mmHg 10%
    07:00 +24°C° 0 mm 3 mps 680 mmHg 10%
    08:00 +26°C° 0 mm 3 mps 680 mmHg 9%
    09:00 +29°C° 0 mm 3 mps 680 mmHg 8%
    10:00 +32°C° 0 mm 4 mps 681 mmHg 7%
    11:00 +34°C° 0 mm 5 mps 680 mmHg 8%
    12:00 +35°C° 0 mm 6 mps 680 mmHg 9%
    13:00 +37°C° 0 mm 8 mps 679 mmHg 10%
    14:00 +37°C° 0 mm 8 mps 679 mmHg 10%
    15:00 +37°C° 0 mm 8 mps 678 mmHg 10%
    16:00 +37°C° 0 mm 9 mps 678 mmHg 10%
    17:00 +34°C° 0 mm 8 mps 678 mmHg 12%
    18:00 +32°C° 0 mm 7 mps 678 mmHg 15%
    19:00 +29°C° 0 mm 6 mps 678 mmHg 17%
    20:00 +28°C° 0 mm 5 mps 678 mmHg 21%
    21:00 +26°C° 0 mm 5 mps 678 mmHg 24%
    22:00 +23°C° 0 mm 4 mps 678 mmHg 28%
    23:00 +22°C° 0 mm 4 mps 678 mmHg 29%

    Tomorrow, 25 September, Tuesday

    Time Temperature Precipitation Wind Pressure Humidity
    00:00 +21°C° 0 mm 4 mps 678 mmHg 31%
    01:00 +20°C° 0 mm 4 mps 677 mmHg 33%
    02:00 +19°C° 0 mm 4 mps 677 mmHg 35%
    03:00 +19°C° 0 mm 4 mps 677 mmHg 37%
    04:00 +18°C° 0 mm 4 mps 677 mmHg 39%
    05:00 +18°C° 0 mm 4 mps 677 mmHg 37%
    06:00 +18°C° 0 mm 4 mps 678 mmHg 35%
    07:00 +18°C° 0 mm 4 mps 678 mmHg 33%
    08:00 +20°C° 0 mm 4 mps 679 mmHg 27%
    09:00 +22°C° 0 mm 5 mps 679 mmHg 20%
    10:00 +25°C° 0 mm 5 mps 680 mmHg 14%
    11:00 +26°C° 0 mm 6 mps 680 mmHg 12%
    12:00 +27°C° 0 mm 7 mps 680 mmHg 10%
    13:00 +28°C° 0 mm 7 mps 679 mmHg 8%
    14:00 +28°C° 0 mm 8 mps 679 mmHg 9%
    15:00 +27°C° 0 mm 8 mps 679 mmHg 9%
    16:00 +27°C° 0 mm 8 mps 679 mmHg 9%
    17:00 +24°C° 0 mm 7 mps 679 mmHg 14%
    18:00 +22°C° 0 mm 7 mps 679 mmHg 18%
    19:00 +20°C° 0 mm 6 mps 680 mmHg 22%
    20:00 +19°C° 0 mm 5 mps 680 mmHg 26%
    21:00 +17°C° 0 mm 5 mps 680 mmHg 31%
    22:00 +15°C° 0 mm 4 mps 681 mmHg 35%
    23:00 +14°C° 0 mm 4 mps 680 mmHg 38%

    Day after tomorrow, 26 September, Wednesday

    Time Temperature Precipitation Wind Pressure Humidity
    00:00 +13°C° 0 mm 3 mps 680 mmHg 41%
    01:00 +13°C° 0 mm 3 mps 680 mmHg 44%
    02:00 +12°C° 0 mm 3 mps 680 mmHg 46%
    03:00 +12°C° 0 mm 2 mps 680 mmHg 48%
    04:00 +10°C° 0 mm 2 mps 680 mmHg 51%
    05:00 +12°C° 0 mm 2 mps 680 mmHg 46%
    06:00 +13°C° 0 mm 1 mps 681 mmHg 41%
    07:00 +13°C° 0 mm 1 mps 681 mmHg 36%
    08:00 +16°C° 0 mm 1 mps 682 mmHg 30%
    09:00 +18°C° 0 mm 2 mps 682 mmHg 23%
    10:00 +21°C° 0 mm 2 mps 682 mmHg 16%
    11:00 +23°C° 0 mm 2 mps 682 mmHg 13%
    12:00 +25°C° 0 mm 2 mps 682 mmHg 11%
    13:00 +27°C° 0 mm 2 mps 681 mmHg 9%
    14:00 +28°C° 0 mm 2 mps 681 mmHg 8%
    15:00 +28°C° 0 mm 1 mps 681 mmHg 7%
    16:00 +29°C° 0 mm 1 mps 680 mmHg 6%
    17:00 +27°C° 0 mm 2 mps 680 mmHg 8%
    18:00 +26°C° 0 mm 2 mps 680 mmHg 9%
    19:00 +24°C° 0 mm 2 mps 680 mmHg 11%
    20:00 +23°C° 0 mm 2 mps 680 mmHg 12%
    21:00 +21°C° 0 mm 2 mps 680 mmHg 14%
    22:00 +20°C° 0 mm 2 mps 680 mmHg 16%
    23:00 +19°C° 0 mm 2 mps 680 mmHg 19%

    27 September, Thursday

    Time Temperature Precipitation Wind Pressure Humidity
    00:00 +18°C° 0 mm 2 mps 679 mmHg 22%
    01:00 +18°C° 0 mm 1 mps 679 mmHg 24%
    02:00 +18°C° 0 mm 1 mps 679 mmHg 28%
    03:00 +16°C° 0 mm 1 mps 679 mmHg 32%
    04:00 +16°C° 0 mm 2 mps 679 mmHg 36%
    05:00 +16°C° 0 mm 1 mps 679 mmHg 36%
    06:00 +18°C° 0 mm 1 mps 680 mmHg 36%
    07:00 +17°C° 0 mm 0 mps 681 mmHg 35%
    08:00 +21°C° 0 mm 1 mps 681 mmHg 30%
    09:00 +23°C° 0 mm 1 mps 681 mmHg 24%
    10:00 +25°C° 0 mm 1 mps 682 mmHg 19%
    11:00 +26°C° 0 mm 2 mps 681 mmHg 16%
    12:00 +28°C° 0 mm 2 mps 681 mmHg 14%
    13:00 +29°C° 0 mm 3 mps 680 mmHg 11%
    14:00 +30°C° 0 mm 4 mps 680 mmHg 11%
    15:00 +30°C° 0 mm 4 mps 680 mmHg 10%
    16:00 +30°C° 0 mm 5 mps 680 mmHg 10%
    17:00 +28°C° 0 mm 6 mps 680 mmHg 12%
    18:00 +27°C° 0 mm 6 mps 680 mmHg 13%
    19:00 +24°C° 0 mm 6 mps 680 mmHg 15%
    20:00 +22°C° 0 mm 6 mps 680 mmHg 18%
    21:00 +21°C° 0 mm 5 mps 681 mmHg 20%
    22:00 +20°C° 0 mm 5 mps 681 mmHg 23%
    23:00 +19°C° 0 mm 5 mps 681 mmHg 26%

    28 September, Friday

    Time Temperature Precipitation Wind Pressure Humidity
    00:00 +16°C° 0 mm 5 mps 680 mmHg 30%
    01:00 +15°C° 0 mm 5 mps 680 mmHg 33%
    02:00 +15°C° 0 mm 4 mps 680 mmHg 38%
    03:00 +14°C° 0 mm 3 mps 680 mmHg 43%
    04:00 +13°C° 0 mm 3 mps 680 mmHg 48%
    05:00 +13°C° 0 mm 3 mps 681 mmHg 49%
    06:00 +15°C° 0 mm 2 mps 682 mmHg 50%
    07:00 +15°C° 0 mm 2 mps 683 mmHg 51%
    08:00 +17°C° 0 mm 3 mps 683 mmHg 46%
    09:00 +18°C° 0 mm 3 mps 683 mmHg 42%
    10:00 +20°C° 0 mm 3 mps 684 mmHg 37%
    11:00 +22°C° 0 mm 4 mps 683 mmHg 32%
    12:00 +23°C° 0 mm 4 mps 683 mmHg 28%
    13:00 +26°C° 0 mm 4 mps 683 mmHg 23%
    14:00 +26°C° 0 mm 5 mps 683 mmHg 21%
    15:00 +26°C° 0 mm 6 mps 682 mmHg 19%
    16:00 +27°C° 0 mm 6 mps 682 mmHg 17%
    17:00 +24°C° 0 mm 6 mps 682 mmHg 17%
    18:00 +23°C° 0 mm 6 mps 683 mmHg 17%
    19:00 +22°C° 0 mm 6 mps 683 mmHg 18%
    20:00 +21°C° 0 mm 5 mps 683 mmHg 18%
    21:00 +20°C° 0 mm 5 mps 683 mmHg 19%
    22:00 +19°C° 0 mm 4 mps 683 mmHg 20%
    23:00 +18°C° 0 mm 4 mps 682 mmHg 21%

    29 September, Saturday

    Time Temperature Precipitation Wind Pressure Humidity
    00:00 +17°C° 0 mm 4 mps 682 mmHg 22%
    01:00 +17°C° 0 mm 3 mps 681 mmHg 23%
    02:00 +16°C° 0 mm 3 mps 681 mmHg 23%
    03:00 +16°C° 0 mm 3 mps 681 mmHg 24%
    04:00 +16°C° 0 mm 3 mps 681 mmHg 24%
    05:00 +17°C° 0 mm 4 mps 682 mmHg 22%
    06:00 +17°C° 0 mm 5 mps 682 mmHg 20%
    07:00 +19°C° 0 mm 6 mps 683 mmHg 18%
    08:00 +21°C° 0 mm 6 mps 683 mmHg 15%
    09:00 +24°C° 0 mm 6 mps 683 mmHg 13%
    10:00 +27°C° 0 mm 6 mps 684 mmHg 10%
    11:00 +29°C° 0 mm 5 mps 683 mmHg 9%
    12:00 +32°C° 0 mm 5 mps 682 mmHg 8%
    13:00 +34°C° 0 mm 4 mps 682 mmHg 7%
    14:00 +34°C° 0 mm 4 mps 682 mmHg 7%
    15:00 +35°C° 0 mm 3 mps 681 mmHg 7%
    16:00 +35°C° 0 mm 3 mps 681 mmHg 8%
    17:00 +34°C° 0 mm 3 mps 681 mmHg 9%
    18:00 +31°C° 0 mm 3 mps 680 mmHg 10%
    19:00 +29°C° 0 mm 3 mps 680 mmHg 10%
    20:00 +29°C° 0 mm 3 mps 680 mmHg 11%
    21:00 +28°C° 0 mm 4 mps 680 mmHg 11%
    22:00 +28°C° 0 mm 4 mps 680 mmHg 11%
    23:00 +27°C° 0 mm 4 mps 680 mmHg 11%
    Show more

    3.3.7123123